This is the latest recevied weather packets stored in our database for station/object KJ7BRE-1. If no packets are shown the sender has not sent any weather packets the latest 10 day(s).
| Time | Temp. | Humidity | Pressure | Rain* | Wind** | Luminosity | Snow |
|---|---|---|---|---|---|---|---|
| 1787966225 | 23.33° C | 47% | 1013.5 hPa | 0 mm | - | - | - |
| 1787965923 | 23.33° C | 47% | 1013.5 hPa | 0 mm | - | - | - |
| 1787965622 | 23.33° C | 47% | 1013.5 hPa | 0 mm | - | - | - |
| 1787965321 | 23.89° C | 47% | 1013.2 hPa | 0 mm | - | - | - |
| 1787965019 | 23.89° C | 47% | 1013.5 hPa | 0 mm | - | - | - |
| 1787964718 | 23.89° C | 46% | 1013.5 hPa | 0 mm | - | - | - |
| 1787964417 | 24.44° C | 46% | 1013.5 hPa | 0 mm | - | - | - |
| 1787964116 | 25° C | 44% | 1013.5 hPa | 0 mm | - | - | - |
| 1787963815 | 25° C | 44% | 1013.5 hPa | 0 mm | - | - | - |
| 1787963513 | 25° C | 44% | 1013.5 hPa | 0 mm | - | - | - |
| 1787963212 | 24.44° C | 45% | 1013.9 hPa | 0 mm | - | - | - |
| 1787962911 | 24.44° C | 44% | 1013.5 hPa | 0 mm | - | - | - |
| 1787962609 | 25° C | 45% | 1013.5 hPa | 0 mm | - | - | - |
| 1787962308 | 24.44° C | 44% | 1013.5 hPa | 0 mm | - | - | - |
| 1787962007 | 24.44° C | 44% | 1013.5 hPa | 0 mm | - | - | - |
| 1787961706 | 25° C | 44% | 1013.5 hPa | 0 mm | - | - | - |
| 1787961405 | 25.56° C | 44% | 1013.9 hPa | 0 mm | - | - | - |
| 1787961103 | 25° C | 46% | 1013.9 hPa | 0 mm | - | - | - |
| 1787960802 | 24.44° C | 46% | 1013.9 hPa | 0 mm | - | - | - |
| 1787960501 | 24.44° C | 46% | 1014.2 hPa | 0 mm | - | - | - |
| 1787960200 | 24.44° C | 46% | 1013.9 hPa | 0 mm | - | - | - |
| 1787959899 | 23.89° C | 47% | 1014.2 hPa | 0 mm | - | - | - |
| 1787959597 | 23.89° C | 47% | 1013.9 hPa | 0 mm | - | - | - |
| 1787959296 | 23.89° C | 48% | 1014.2 hPa | 0 mm | - | - | - |
| 1787958995 | 23.89° C | 48% | 1013.9 hPa | 0 mm | - | - | - |
* Rain latest hour (hover to see other rain measurements)
** Current wind speed in m/s (hover to see current wind gust speed)